Regional Weather Roundup
Issued by NWS Upton, NY

Current Version | Previous Version | Text Only | Print | Product List | Glossary Off
Versions: 1 2 3 4 5 6 7 8 9 10 11 12 13 14 15 16 17 18 19 20 21 22 23 24 25 26 27 28 29 30 31 32 33 34 35 36 37 38 39 40 41 42 43 44 45 46 47 48 49 50
377 ASUS41 KOKX 100908 RWROKX REGIONAL WEATHER ROUNDUP NATIONAL WEATHER SERVICE NEW YORK NY 400 AM EST SAT DEC 10 2016 NOTE: "FAIR" INDICATES FEW OR NO CLOUDS BELOW 12,000 FEET WITH NO SIGNIFICANT WEATHER AND/OR OBSTRUCTIONS TO VISIBILITY. NYZ071-072-176-178-NJZ106-104-101000- NEW YORK CITY METRO AREA CITY SKY/WX TMP DP RH WIND PRES REMARKS Central Park CLEAR 29 15 56 NW6 30.34S WCI 23 Wall St Helipt SUNNY 32 22 66 W9 30.35R WCI 24 Bronx Bot Gard NOT AVBL LaGuardia APRT CLEAR 31 16 54 NW13 30.32S WCI 21 Kennedy INTL PTCLDY 30 14 51 W10 30.35R WCI 21 Breezy Point N/A N/A N/A N/A W12G17 N/A Newark/Liberty CLEAR 28 15 58 W9 30.34R WCI 19 Teterboro CLEAR 28 14 55 W5 30.33R WCI 23 $$ NYZ177-179-078>081-101000- LONG ISLAND NEW YORK CITY SKY/WX TMP DP RH WIND PRES REMARKS Jones Beach N/A N/A N/A N/A NW13 N/A Matinecock PT NOT AVBL Farmingdale CLEAR 28 15 58 NW9 30.32R WCI 19 MacArthur/ISP CLEAR 25 16 68 W6 30.30S WCI 18 Shirley CLEAR 25 16 68 NW7 30.31S WCI 17 Westhampton NOT AVBL Southampton NOT AVBL Bridgehampton NOT AVBL East Hampton N/A 26 12 55 NW9 30.29S WCI 17 Montauk N/A 28 13 53 NW15G28 30.29R WCI 16 $$ NYZ052-065-067-101000- HUDSON VALLEY CITY SKY/WX TMP DP RH WIND PRES REMARKS White Plains CLEAR 26 15 63 W8 30.28S WCI 18 Newburgh CLEAR 19 16 86 W7 30.29F WCI 10 Montgomery CLEAR 18 14 84 SW3 30.29S Poughkeepsie CLEAR 16 12 84 CALM 30.30S Albany MOCLDY 18 12 77 CALM 30.31R $$ NJZ001-105-106-008-010-013-015-019>022-104-101000- NEW JERSEY CITY SKY/WX TMP DP RH WIND PRES REMARKS Newark/Liberty CLEAR 28 15 58 W9 30.34R WCI 19 Teterboro CLEAR 28 14 55 W5 30.33R WCI 23 Caldwell CLEAR 27 15 61 W6 30.34R WCI 20 Somerville CLEAR 20 15 81 CALM 30.33R Linden N/A 27 18 69 CALM 30.36R Sussex CLEAR 18 14 84 SW3 30.30S Andover N/A 20 16 84 CALM 30.31R Trenton MOCLDY 29 21 72 W7 30.35R WCI 22 Millville CLEAR 28 19 69 W9 30.40S WCI 19 Atlantic City PTCLDY 28 17 63 W7 30.39R WCI 21 Wrightstown MOCLDY 29 21 72 W7 30.33S WCI 21 Toms River PTCLDY 20 18 92 SW6 30.37S WCI 12 Belmar CLEAR 24 21 88 W8 30.35S WCI 15 $$ PAZ047>061-062-071-101000- EASTERN PENNSYLVANIA CITY SKY/WX TMP DP RH WIND PRES REMARKS Philadelphia PTCLDY 28 18 66 W8 30.40S WCI 20 Allentown CLOUDY 29 22 75 W10 30.34S WCI 20 Scranton CLOUDY 27 16 63 W7 30.29S WCI 19 $$ CTZ002-004>006-009-010-012-RIZ004-006-007-MAZ004-011-015-101000- SOUTHERN NEW ENGLAND IN CT CITY SKY/WX TMP DP RH WIND PRES REMARKS Bradley INTL CLEAR 21 9 59 NW8 30.27R WCI 11 Hartford CLEAR 23 11 60 W3 30.29S Danbury CLEAR 21 13 71 NW5 30.29S WCI 15 Wtrbury/Oxford CLEAR 21 7 53 CALM 30.25S Bridgeport CLEAR 25 14 63 NW3 30.31S Meriden CLEAR 21 9 59 CALM 30.29S New Haven CLEAR 26 13 57 VRB6 30.30S WCI 19 Chester N/A 23 9 54 CALM 30.27R Groton CLEAR 27 11 51 W8 30.28R WCI 19 Wilimantic CLEAR 24 11 57 W5 30.27R WCI 18 IN RI CITY SKY/WX TMP DP RH WIND PRES REMARKS Providence PTCLDY 21 7 54 W5 30.26R WCI 15 Block Island CLEAR 26 13 57 NW14G22 30.27R WCI 14 Westerly CLEAR 24 9 52 VRB5 30.28R WCI 18 IN MA CITY SKY/WX TMP DP RH WIND PRES REMARKS Boston PTCLDY 23 7 50 W13G24 30.24R WCI 11 Worcester CLEAR 17 3 54 NW6 30.17S WCI 9 Westfield CLEAR 20 11 68 NW8 30.26R WCI 10 Provincetown MOCLDY 26 14 60 NW21G29 30.21R WCI 12 Nantucket CLEAR 26 9 48 NW13G23 30.22R WCI 15 $$ ANZ330-335-338-340-345-350-353-355-101000- COASTAL MARINE OBSERVATIONS STATION/POSITION TIME SKY/WX TEMP WIND PRES VSBY WAVE AIR SEA DIR/SP/G HT/PER (UTC) (F) (DEG/KT/KT) (MB) (MI) (FT/S) NY HARB ENTRANCE 0750 34 51 300/ 17/ 25 1026.5 3/ 4 20 S FIRE ISLAND 0850 34 52 320/ 19/ 25 1026.0 4/ 5 GREAT SOUTH BAY 0815 30 40 N/A 23 SSW MONTAUK P 0750 31 54 300/ 17/ 23 1025.6 4/ 4 15 E BARNEGAT LI 0830 51 N/A 4/ 4 HUDSON CANYON 0750 38 56 1025.7 8/ 8 KINGS POINT 0848 30 44 1026.7 EXECUTION ROCKS 0845 31 280/ 12/ 17 N/A CENTRAL LI SOUND 0845 29 49 320/ 16/ 19 N/A 2/ 4 EASTERN LI SOUND NOT AVBL ROBBINS REEF 0848 30 280/ 12/ 14 1027.4 $$ >>>>>>>>>>>>>>>>>>>>>>>>>>>> KEY <<<<<<<<<<<<<<<<<<<<<<<<<<< > < > SKY/WX - Sky Condition/Present Weather < > TMP - Temperature in Fahrenheit < > DP - Dew Point in Fahrenheit < > RH - Relative Humidity in Percent < > WIND - Direction (from) and Speed in MPH < > PRES - Mean Sea Level Pressure (inches of Hg) < > WCI - Wind Chill Index < > VSB - VISIBILITY IN MILES < > HX - HEAT INDEX < > TC - TEMPERATURE IN CELSIUS < > VRB - VARIABLE WIND DIRECTION < > < >>>>>>>>>>>>>>>>>>>>>>>>>>>> KEY <<<<<<<<<<<<<<<<<<<<<<<<<<<

USA.gov is the U.S. government's official web portal to all federal, state and local government web resources and services.